sat.trackr.live / text

‹ back to catalog

TRACERS 2

NORAD 64873 · 2025-154E

PAYLOAD ACTIVE UNKNOWN

§ Identity

Operator
Country
US
Launch date
2025-07-23
Launch site
AFWTR
Launch vehicle
Mass (kg)
RCS (m²)

External: N2YO · Heavens-Above · Gunter

§ Orbital elements

Epoch: 2026-09-21T18:42:15.806304Z

Period
96.40 min
Inclination
97.6592°
Eccentricity
0.0003455
Mean motion
14.93698737 rev/d
Perigee alt
584.0 km
Apogee alt
588.8 km
Semi-major
6,964.6 km
B*
9.6021e-5
RAAN
326.0471°
Arg perigee
359.5569°
Mean anomaly
0.5648°
Rev number
6,341

§ Raw data

TRACERS 21 64873U 25154E   26264.77934961  .00000960  00000+0  96021-4 0  99972 64873  97.6592 326.0471 0003455 359.5569   0.5648 14.93698737 63414

JSON: /api/v1/satellites/64873 · /tle

For live sub-satellite position, see the globe view (requires WebGL).

§ Visibility from observer

Set your observer location to see the next 7 days of passes ≥ 10°. The values pass through the URL so the page stays shareable.

No JS? Fill the form by hand. The geolocation button needs JavaScript.